<?xml version="1.0"?>
<gpx xmlns="http://www.topografix.com/GPX/1/1" xmlns:xsi="http://www.w3.org/2001/XMLSchema-instance" version="1.1" creator="GPX RubyGem 1.0.0 -- http://dougfales.github.io/gpx/" xsi:schemaLocation="http://www.topografix.com/GPX/1/1 http://www.topografix.com/GPX/1/1/gpx.xsd">
  <metadata>
    <name/>
    <time>2026-05-07T11:20:55+00:00</time>
    <bound minlat="90.0" minlon="180.0" maxlat="-90.0" maxlon="-180.0"/>
  </metadata>
  <trk>
    <name/>
    <trkseg>
      <trkpt lat="45.844103" lon="11.846938">
        <time>1970-01-01T00:00:00+00:00</time>
        <ele>403.0</ele>
      </trkpt>
      <trkpt lat="45.844051" lon="11.846936">
        <time>1970-01-01T00:00:00+00:00</time>
        <ele>403.0</ele>
      </trkpt>
      <trkpt lat="45.843777" lon="11.847047">
        <time>1970-01-01T00:00:00+00:00</time>
        <ele>403.0</ele>
      </trkpt>
      <trkpt lat="45.843773" lon="11.847006">
        <time>1970-01-01T00:00:00+00:00</time>
        <ele>402.0</ele>
      </trkpt>
      <trkpt lat="45.843811" lon="11.846837">
        <time>1970-01-01T00:00:00+00:00</time>
        <ele>403.0</ele>
      </trkpt>
      <trkpt lat="45.844254" lon="11.84636">
        <time>1970-01-01T00:00:00+00:00</time>
        <ele>407.0</ele>
      </trkpt>
      <trkpt lat="45.84471" lon="11.845831">
        <time>1970-01-01T00:00:00+00:00</time>
        <ele>412.0</ele>
      </trkpt>
      <trkpt lat="45.845289" lon="11.845338">
        <time>1970-01-01T00:00:00+00:00</time>
        <ele>418.0</ele>
      </trkpt>
      <trkpt lat="45.845557" lon="11.845082">
        <time>1970-01-01T00:00:00+00:00</time>
        <ele>421.0</ele>
      </trkpt>
      <trkpt lat="45.846001" lon="11.844748">
        <time>1970-01-01T00:00:00+00:00</time>
        <ele>428.0</ele>
      </trkpt>
      <trkpt lat="45.845789" lon="11.844007">
        <time>1970-01-01T00:00:00+00:00</time>
        <ele>426.0</ele>
      </trkpt>
      <trkpt lat="45.8457" lon="11.843605">
        <time>1970-01-01T00:00:00+00:00</time>
        <ele>424.0</ele>
      </trkpt>
      <trkpt lat="45.845741" lon="11.843374">
        <time>1970-01-01T00:00:00+00:00</time>
        <ele>425.0</ele>
      </trkpt>
      <trkpt lat="45.845879" lon="11.843224">
        <time>1970-01-01T00:00:00+00:00</time>
        <ele>427.0</ele>
      </trkpt>
      <trkpt lat="45.846223" lon="11.842961">
        <time>1970-01-01T00:00:00+00:00</time>
        <ele>433.0</ele>
      </trkpt>
      <trkpt lat="45.846387" lon="11.842793">
        <time>1970-01-01T00:00:00+00:00</time>
        <ele>433.0</ele>
      </trkpt>
      <trkpt lat="45.846458" lon="11.84272">
        <time>1970-01-01T00:00:00+00:00</time>
        <ele>432.0</ele>
      </trkpt>
      <trkpt lat="45.846544" lon="11.842495">
        <time>1970-01-01T00:00:00+00:00</time>
        <ele>436.0</ele>
      </trkpt>
      <trkpt lat="45.846686" lon="11.842344">
        <time>1970-01-01T00:00:00+00:00</time>
        <ele>439.0</ele>
      </trkpt>
      <trkpt lat="45.846896" lon="11.842307">
        <time>1970-01-01T00:00:00+00:00</time>
        <ele>438.0</ele>
      </trkpt>
      <trkpt lat="45.847217" lon="11.84206">
        <time>1970-01-01T00:00:00+00:00</time>
        <ele>436.0</ele>
      </trkpt>
      <trkpt lat="45.847456" lon="11.841695">
        <time>1970-01-01T00:00:00+00:00</time>
        <ele>441.0</ele>
      </trkpt>
      <trkpt lat="45.847688" lon="11.841513">
        <time>1970-01-01T00:00:00+00:00</time>
        <ele>443.0</ele>
      </trkpt>
      <trkpt lat="45.848009" lon="11.841427">
        <time>1970-01-01T00:00:00+00:00</time>
        <ele>439.0</ele>
      </trkpt>
      <trkpt lat="45.848248" lon="11.841255">
        <time>1970-01-01T00:00:00+00:00</time>
        <ele>439.0</ele>
      </trkpt>
      <trkpt lat="45.848854" lon="11.840504">
        <time>1970-01-01T00:00:00+00:00</time>
        <ele>450.0</ele>
      </trkpt>
      <trkpt lat="45.849145" lon="11.840419">
        <time>1970-01-01T00:00:00+00:00</time>
        <ele>450.0</ele>
      </trkpt>
      <trkpt lat="45.849383" lon="11.840142">
        <time>1970-01-01T00:00:00+00:00</time>
        <ele>454.0</ele>
      </trkpt>
      <trkpt lat="45.849136" lon="11.839937">
        <time>1970-01-01T00:00:00+00:00</time>
        <ele>459.0</ele>
      </trkpt>
      <trkpt lat="45.848866" lon="11.839666">
        <time>1970-01-01T00:00:00+00:00</time>
        <ele>465.0</ele>
      </trkpt>
      <trkpt lat="45.848653" lon="11.839624">
        <time>1970-01-01T00:00:00+00:00</time>
        <ele>466.0</ele>
      </trkpt>
      <trkpt lat="45.848313" lon="11.839735">
        <time>1970-01-01T00:00:00+00:00</time>
        <ele>464.0</ele>
      </trkpt>
      <trkpt lat="45.848016" lon="11.839762">
        <time>1970-01-01T00:00:00+00:00</time>
        <ele>467.0</ele>
      </trkpt>
      <trkpt lat="45.848165" lon="11.839602">
        <time>1970-01-01T00:00:00+00:00</time>
        <ele>465.0</ele>
      </trkpt>
      <trkpt lat="45.848157" lon="11.839273">
        <time>1970-01-01T00:00:00+00:00</time>
        <ele>463.0</ele>
      </trkpt>
      <trkpt lat="45.84813" lon="11.83912">
        <time>1970-01-01T00:00:00+00:00</time>
        <ele>462.0</ele>
      </trkpt>
      <trkpt lat="45.84813" lon="11.83912">
        <time>1970-01-01T00:00:00+00:00</time>
        <ele>462.0</ele>
      </trkpt>
      <trkpt lat="45.848157" lon="11.839273">
        <time>1970-01-01T00:00:00+00:00</time>
        <ele>463.0</ele>
      </trkpt>
      <trkpt lat="45.848165" lon="11.839602">
        <time>1970-01-01T00:00:00+00:00</time>
        <ele>465.0</ele>
      </trkpt>
      <trkpt lat="45.848016" lon="11.839762">
        <time>1970-01-01T00:00:00+00:00</time>
        <ele>467.0</ele>
      </trkpt>
      <trkpt lat="45.848313" lon="11.839735">
        <time>1970-01-01T00:00:00+00:00</time>
        <ele>464.0</ele>
      </trkpt>
      <trkpt lat="45.848653" lon="11.839624">
        <time>1970-01-01T00:00:00+00:00</time>
        <ele>466.0</ele>
      </trkpt>
      <trkpt lat="45.848866" lon="11.839666">
        <time>1970-01-01T00:00:00+00:00</time>
        <ele>465.0</ele>
      </trkpt>
      <trkpt lat="45.849136" lon="11.839937">
        <time>1970-01-01T00:00:00+00:00</time>
        <ele>459.0</ele>
      </trkpt>
      <trkpt lat="45.849383" lon="11.840142">
        <time>1970-01-01T00:00:00+00:00</time>
        <ele>454.0</ele>
      </trkpt>
      <trkpt lat="45.849145" lon="11.840419">
        <time>1970-01-01T00:00:00+00:00</time>
        <ele>450.0</ele>
      </trkpt>
      <trkpt lat="45.848854" lon="11.840504">
        <time>1970-01-01T00:00:00+00:00</time>
        <ele>450.0</ele>
      </trkpt>
      <trkpt lat="45.848248" lon="11.841255">
        <time>1970-01-01T00:00:00+00:00</time>
        <ele>439.0</ele>
      </trkpt>
      <trkpt lat="45.848009" lon="11.841427">
        <time>1970-01-01T00:00:00+00:00</time>
        <ele>439.0</ele>
      </trkpt>
      <trkpt lat="45.847688" lon="11.841513">
        <time>1970-01-01T00:00:00+00:00</time>
        <ele>443.0</ele>
      </trkpt>
      <trkpt lat="45.847456" lon="11.841695">
        <time>1970-01-01T00:00:00+00:00</time>
        <ele>441.0</ele>
      </trkpt>
      <trkpt lat="45.847217" lon="11.84206">
        <time>1970-01-01T00:00:00+00:00</time>
        <ele>436.0</ele>
      </trkpt>
      <trkpt lat="45.846896" lon="11.842307">
        <time>1970-01-01T00:00:00+00:00</time>
        <ele>438.0</ele>
      </trkpt>
      <trkpt lat="45.846686" lon="11.842344">
        <time>1970-01-01T00:00:00+00:00</time>
        <ele>439.0</ele>
      </trkpt>
      <trkpt lat="45.846544" lon="11.842495">
        <time>1970-01-01T00:00:00+00:00</time>
        <ele>436.0</ele>
      </trkpt>
      <trkpt lat="45.846458" lon="11.84272">
        <time>1970-01-01T00:00:00+00:00</time>
        <ele>432.0</ele>
      </trkpt>
      <trkpt lat="45.846387" lon="11.842793">
        <time>1970-01-01T00:00:00+00:00</time>
        <ele>433.0</ele>
      </trkpt>
      <trkpt lat="45.846223" lon="11.842961">
        <time>1970-01-01T00:00:00+00:00</time>
        <ele>433.0</ele>
      </trkpt>
      <trkpt lat="45.845879" lon="11.843224">
        <time>1970-01-01T00:00:00+00:00</time>
        <ele>427.0</ele>
      </trkpt>
      <trkpt lat="45.845741" lon="11.843374">
        <time>1970-01-01T00:00:00+00:00</time>
        <ele>425.0</ele>
      </trkpt>
      <trkpt lat="45.8457" lon="11.843605">
        <time>1970-01-01T00:00:00+00:00</time>
        <ele>424.0</ele>
      </trkpt>
      <trkpt lat="45.845789" lon="11.844007">
        <time>1970-01-01T00:00:00+00:00</time>
        <ele>426.0</ele>
      </trkpt>
      <trkpt lat="45.846001" lon="11.844748">
        <time>1970-01-01T00:00:00+00:00</time>
        <ele>428.0</ele>
      </trkpt>
      <trkpt lat="45.845557" lon="11.845082">
        <time>1970-01-01T00:00:00+00:00</time>
        <ele>421.0</ele>
      </trkpt>
      <trkpt lat="45.845289" lon="11.845338">
        <time>1970-01-01T00:00:00+00:00</time>
        <ele>418.0</ele>
      </trkpt>
      <trkpt lat="45.84471" lon="11.845831">
        <time>1970-01-01T00:00:00+00:00</time>
        <ele>412.0</ele>
      </trkpt>
      <trkpt lat="45.844254" lon="11.84636">
        <time>1970-01-01T00:00:00+00:00</time>
        <ele>407.0</ele>
      </trkpt>
      <trkpt lat="45.843811" lon="11.846837">
        <time>1970-01-01T00:00:00+00:00</time>
        <ele>403.0</ele>
      </trkpt>
      <trkpt lat="45.843773" lon="11.847006">
        <time>1970-01-01T00:00:00+00:00</time>
        <ele>402.0</ele>
      </trkpt>
      <trkpt lat="45.843777" lon="11.847047">
        <time>1970-01-01T00:00:00+00:00</time>
        <ele>403.0</ele>
      </trkpt>
      <trkpt lat="45.844051" lon="11.846936">
        <time>1970-01-01T00:00:00+00:00</time>
        <ele>403.0</ele>
      </trkpt>
      <trkpt lat="45.844103" lon="11.846938">
        <time>1970-01-01T00:00:00+00:00</time>
        <ele>403.0</ele>
      </trkpt>
    </trkseg>
  </trk>
</gpx>
